Regional Weather Roundup
Issued by NWS

Home | Current Version | Previous Version | Text Only | Print | Product List | Glossary Off
Versions: 1 2 3 4 5 6 7 8 9 10 11 12 13 14 15 16 17 18 19 20 21 22 23 24 25 26 27 28 29 30 31 32 33 34 35 36 37 38 39 40 41 42 43 44 45 46 47 48 49 50

000
ASUS45 KTFX 271419
RWRMT
MONTANA HOURLY WEATHER ROUNDUP
NATIONAL WEATHER SERVICE GREAT FALLS MT
719 AM MST SAT DEC 27 2014

NOTE: "FAIR" INDICATES FEW OR NO CLOUDS BELOW 12000 FEET WITH NO
SIGNIFICANT WEATHER AND/OR OBSTRUCTIONS TO VISIBILITY.

* THESE STATIONS ARE NOT UNDER NWS QUALITY CONTROL. THEY DO NOT
   REPORT WEATHER SUCH AS PRECIPITATION OR FOG.

MTZ001>007-043-271500-
WEST OF THE DIVIDE
CITY           SKY/WX    TMP DP  RH WIND       PRES   REMARKS
KALISPELL      LGT SNOW  21  19  92 SW3       30.14F VSB 3
MISSOULA       CLOUDY    25  19  78 SE5       30.20S WCI  19
BUTTE          CLOUDY     3   0  87 CALM      30.10F
MULLAN PASS    LGT SNOW  19  16  88 SW7       30.02F VSB 2 1/2 WCI  10
* ESSEX        N/A       21  19  92 N/A        N/A
* HAMILTON APT CLOUDY    23  16  74 S9        30.18S WCI  13
* LIBBY APT    CLOUDY    21  18  88 CALM      30.17F
* LINCOLN      N/A       20  16  84 SW5G12     N/A   WCI  13
* LOOKOUT PASS N/A       22  20  92 NW2        N/A
* POLSON       N/A       23  22  96 N/A        N/A
* RONAN APT    CLOUDY    28  25  89 SW6        N/A   WCI  21
* SEELEY LAKE  N/A       14  11  88 N1         N/A
* THOMP F APT  CLOUDY     5   0  80 N/A        N/A
* YAAK HILL    N/A       26  23  88 SW2        N/A
$$

MTZ008-052>055-271500-
SOUTHWEST MONTANA
CITY           SKY/WX    TMP DP  RH WIND       PRES   REMARKS
BOZEMAN        MOCLDY     3   0  87 S7        30.17R WCI  -9
DILLON         CLOUDY    16   7  67 W15       30.13R WCI   1
* W YELLOWSTON PTCLDY    -2  -7  79 N/A        N/A
* THREE FORKS  CLOUDY     7   7 100 N/A        N/A
* BOULDER HILL N/A       15   5  64 SW11       N/A   WCI   2
* MONIDA PASS  N/A        2  -1  87 SE13       N/A   WCI -16
* RAYNOLDS PAS N/A        5  -8  54 S8         N/A   WCI  -8
* WHITEHALL    N/A       18   8  65 W8G17      N/A   WCI   8
* WISE RIVER   N/A       15   9  77 NW6G14     N/A   WCI   6
$$

MTZ009>010-012-014-046-048-049-054-271500-
EAST SLOPES AND CENTRAL MONTANA
CITY           SKY/WX    TMP DP  RH WIND       PRES   REMARKS
CUT BANK       CLOUDY    25  18  75 W17       29.96S WCI  12
GREAT FALLS    CLOUDY    23  16  74 SW13      30.02S WCI  11
HELENA         CLOUDY    27  14  58 W12       30.10F WCI  16
MALMSTROM AFB  CLOUDY    23  18  81 SW14      30.05R WCI  10
* CONRAD       CLOUDY    12   9  88 CALM       N/A
* EAST GLACIER N/A       22  15  74 W22G30     N/A   WCI   6
* MONARCH      N/A       18   7  62 SW13       N/A   WCI   5
* PENDROY      N/A       24  12  60 W7         N/A   WCI  16
* ROGERS PASS  N/A       18  13  81 E10G17     N/A   WCI   6
* SWEET GRASS  N/A       22  13  68 W11G16     N/A   WCI  11
* WHITE SULPH  N/A       17   9  71 S8G14      N/A   WCI   7
$$

MTZ011-013-016-021-035-040-045-047-050-051-271500-
NORTH CENTRAL MONTANA
CITY           SKY/WX    TMP DP  RH WIND       PRES   REMARKS
HAVRE          CLOUDY    18  12  77 SW12      30.02F WCI   5
LEWISTOWN      CLOUDY    18   9  68 W7        30.00S WCI   9
* CHINOOK      MOCLDY    19  12  74 NW5       30.03F WCI  12
* CHESTER      N/A       11   7  84 S1         N/A
* DENTON       N/A       21  14  74 SW9        N/A   WCI  11
* GEYSER       N/A       23  11  60 SW16G24    N/A   WCI  10
* JUDITH GAP   N/A       14   5  67 E4         N/A
* LOMA         N/A       15  11  84 SW4        N/A
$$

MTZ017>020-022>027-061-062-271500-
NORTHEAST MONTANA
CITY           SKY/WX    TMP DP  RH WIND       PRES   REMARKS
GLASGOW        CLOUDY    16  12  84 SW7       30.01F WCI   6
GLENDIVE       CLEAR     19  16  88 SW12      30.03F WCI   6
JORDAN         CLOUDY    16  10  77 W9        30.02F WCI   5
SIDNEY         PTCLDY    14  10  84 S10       30.03F WCI   1
WOLF POINT     CLOUDY    10   9  96 S5        30.04R WCI   1
* BEAVER HILL  N/A       12   9  88 S9         N/A
* CIRCLE       N/A       17  14  88 SW7        N/A   WCI   7
* LINDSAY DVD  N/A       19  14  81 SW16G22    N/A   WCI   4
* NAVAJO       N/A       16  11  81 W18        N/A
* PLENTYWOOD A CLOUDY     9   7  91 CALM      29.97S
* POPLAR APT   MOCLDY    12  10  92 N/A       30.02S
* SACO         N/A       13  10  88 S6         N/A   WCI   4
$$

MTZ028>042-056>058-271500-
SOUTHCENTRAL AND SOUTHEAST MONTANA
CITY           SKY/WX    TMP DP  RH WIND       PRES   REMARKS
BAKER          CLEAR     16  12  84 SW10      30.04F WCI   4
BILLINGS       MOCLDY    19  12  74 W15       30.07R WCI   5
LIVINGSTON     MOCLDY    19   3  49 SW30G41   30.07R
MILES CITY     PTCLDY    14  10  84 SW5       30.06S WCI   6
* BIG TIMBER A MOCLDY    19   7  59 SW32G39   30.03R WCI  -1
* FORSYTH APT  PTCLDY    16  12  84 W6        30.08R WCI   7
* LAUREL APT   MOCLDY    18   9  68 SW10       N/A   WCI   6
* ROUNDUP APT  CLOUDY    10   1  67 S13        N/A   WCI  -5
* ALZADA       N/A       17  14  88 S5         N/A   WCI   9
* HYSHAM       N/A       14  11  88 NW5G12     N/A   WCI   6
* REED POINT   N/A        1  -2  87 E2         N/A
* ROSCOE HILL  N/A       13  -3  48 SW1        N/A
$$

REGIONAL REPORTS...DAKOTAS
CITY           SKY/WX    TMP DP  RH WIND       PRES   REMARKS
WILLISTON      CLOUDY    12  10  92 S5        30.02F WCI   4
DICKINSON      CLEAR     14   9  80 W10       30.02S WCI   1
BEACH          CLEAR     16  14  92 SW13      30.03F WCI   2
CROSBY         CLOUDY    14  14 100 S9        29.98F WCI   2
TIOGA          CLOUDY    14  14 100 SW6       30.01F WCI   5
WATFORD CITY   CLOUDY    14  12  92 SW3       30.00F
BISMARCK       CLOUDY    10   9  96 CALM      30.08F
GRAND FORKS    CLOUDY     7   1  76 S10       30.10F WCI  -7
FARGO          CLOUDY     7   1  76 S6        30.15F WCI  -4
BUFFALO SD     PTCLDY    19  14  81 W16       29.99S WCI   4
RAPID CITY     PTCLDY     3   0  87 CALM      30.10F
$$

REGIONAL REPORTS...WYOMING/IDAHO/WASHINGTON
CITY           SKY/WX    TMP DP  RH WIND       PRES   REMARKS
GILLETTE       PTCLDY     9   5  84 S7        30.05S WCI  -2
SHERIDAN       PTCLDY     3  -2  79 CALM      30.04S
CODY           PTCLDY    18   0  45 W10G20    30.01S WCI   6
YELLOWSTONE LA MOCLDY     0  -6  75 CALM      30.08S
SALMON         CLOUDY    19   7  59 W7        30.23F WCI  10
MULLAN PASS    LGT SNOW  19  16  88 SW7       30.02S VSB 2 1/2 WCI  10
SAND POINT     LGT SNOW  30  30 100 S5        30.16F WCI  25
SPOKANE        LGT SNOW  30  27  89 S5        30.16F WCI  25
$$

REGIONAL REPORTS...ALBERTA
CITY           SKY/WX    TMP DP  RH WIND       PRES   REMARKS
CALGARY        PTCLDY    16   9  74 SW3       29.90S
LETHBRIDGE     CLOUDY    28  18  66 W20       29.95S WCI  15
MEDICINE HAT   CLOUDY    21  16  81 SW6       29.98S WCI  13
EDMONTON       MOCLDY    18  12  77 W5        29.90S WCI  11
WATERTON GATE  N/A       25  18  75 SW23G32    N/A   WCI  10
CARDSTON       N/A       28  18  66 W14G21     N/A   WCI  17
MILK RIVER     N/A       18  12  77 NW7        N/A   WCI   9
$$

REGIONAL REPORTS...SASKATCHEWAN
CITY           SKY/WX    TMP DP  RH WIND       PRES   REMARKS
SWIFT CURRENT  LGT SNOW  19  18  96 NW12      29.93S WCI   6
REGINA         PTCLDY     9   7  91 NW5       29.96F
VAL MARIE      N/A       18  16  92 W3         N/A
ASSINIBOIA     N/A       12  10  92 W6         N/A   WCI   2

$$



USA.gov is the U.S. government's official web portal to all federal, state and local government web resources and services.